This demonstration page uses our WeatherBlox Daily Observations layout. Learn more.

Left ArrowRight Arrow

39.29038, -76.61219

Hourly Observations for July 29, 2020

Temp ( °F °C ) Dew Point ( °F °C ) Humidity (%) Winds ( mph kmh ) Pressure ( in mb ) Visibility ( mi km ) Precip ( " mm )
12:54 am 00:54 Mostly Cloudy 78 25.6 68 20 71 71 WSW 6 9 29.90 1013 10 16 0.00 0.00
1:54 am 01:54 Partly Cloudy 78 25.6 69 20.6 74 74 W 8 13 29.89 1012 10 16 0.00 0.00
2:54 am 02:54 Mostly Clear 77 25 70 21.1 79 79 W 6 9 29.90 1012 10 16 0.00 0.00
3:54 am 03:54 Mostly Clear 74 23.3 69 20.6 85 85 W 5 7 29.91 1013 10 16 0.00 0.00
4:54 am 04:54 Mostly Clear 74 23.3 69 20.6 85 85 WSW 3 6 29.92 1013 10 16 0.00 0.00
5:54 am 05:54 Mostly Clear 75 23.9 69 20.6 82 82 W 3 6 29.93 1014 10 16 0.00 0.00
6:54 am 06:54 Mostly Sunny 74 23.3 68 20 82 82 WNW 6 9 29.94 1014 10 16 0.00 0.00
7:54 am 07:54 Mostly Sunny 80 26.7 66 18.9 62 62 NW 3 6 29.95 1014 10 16 0.00 0.00
8:54 am 08:54 Sunny 85 29.4 63 17.2 48 48 VRB 3 6 29.96 1014 10 16 0.00 0.00
9:54 am 09:54 Sunny 88 31.1 60 15.6 39 39 N 6 9 29.96 1015 10 16 0.00 0.00
10:54 am 10:54 Sunny 89 31.7 59 15 36 36 W 6 9 29.96 1015 10 16 0.00 0.00
11:54 am 11:54 Sunny 90 32.2 58 14.4 34 34 SW 6 9 29.96 1015 10 16 0.00 0.00
12:54 pm 12:54 Mostly Sunny 91 32.8 57 13.9 32 32 VRB 6 9 29.95 1014 10 16 0.00 0.00
1:54 pm 13:54 Mostly Sunny 94 34.4 58 14.4 30 30 undefined N/A 29.94 1014 10 16 0.00 0.00
2:54 pm 14:54 Partly Cloudy 93 33.9 58 14.4 31 31 SW 8 13 29.91 1013 10 16 0.00 0.00
3:54 pm 15:54 Partly Cloudy 94 34.4 59 15 31 31 VRB 3 6 29.88 1012 10 16 0.00 0.00
4:54 pm 16:54 Mostly Sunny 94 34.4 56 13.3 28 28 SW 10 17 29.87 1012 10 16 0.00 0.00
5:54 pm 17:54 Mostly Sunny 93 33.9 56 13.3 29 29 W 6 9 29.87 1012 10 16 0.00 0.00
6:54 pm 18:54 Mostly Sunny 92 33.3 58 14.4 32 32 W 8 13 29.88 1012 10 16 0.00 0.00
7:54 pm 19:54 Mostly Sunny 88 31.1 59 15 38 38 WSW 5 7 29.88 1012 10 16 0.00 0.00
8:54 pm 20:54 Mostly Clear 86 30 60 15.6 42 42 S 6 9 29.89 1012 10 16 0.00 0.00
9:54 pm 21:54 Clear 83 28.3 63 17.2 51 51 SSW 5 7 29.91 1013 10 16 0.00 0.00
10:54 pm 22:54 Clear 78 25.6 65 18.3 64 64 SW 5 7 29.91 1013 10 16 0.00 0.00
11:54 pm 23:54 Clear 79 26.1 67 19.4 67 67 SW 5 7 29.91 1013 10 16 0.00 0.00

Powered by AerisWeather